Retour au catalogue

ARIANE 3 DEB

ActifGTO
NORAD 48348·DEBRIS·🇫🇷 France

Lancé Aug 4, 1984 depuis Guiana Space Centre

Loading…

TLE

PériméSource: Space-Track

Époque: Sep 13, 2026, 23:44 UTC

1 48348U 84081H   26256.98912670 -.00000178  00000-0  00000-0 0  9998
2 48348   7.0075 213.4296 7160511 263.4339  18.1068  2.08318938 98076

Suivez ARIANE 3 DEB en temps réel avec AllMySat

Download on the App Store